When you browse on this site, cookies collect data to enhance your experience and personalize the content and advertising you see.
Visit our Privacy Policy to learn more. By continuing to use the site, you agree to this use of cookies and data.
  • In Latvia
  • List of Countries
  • For 7 days
  • Water Temperature
  • Satellite Maps
  • Weather Map
  • Weather Widgets
  • user-avatar
    Login

    Hourly Weather Loganesti

    Today, 23 February, Saturday

    Time Temperature Precipitation Wind Pressure Humidity
    00:00 -9°C° 0 mm 6 mps 757 mmHg 61%
    01:00 -9°C° 0 mm 6 mps 757 mmHg 61%
    02:00 -9°C° 0 mm 6 mps 758 mmHg 61%
    03:00 -10°C° 0 mm 6 mps 758 mmHg 61%
    04:00 -10°C° 0 mm 6 mps 759 mmHg 62%
    05:00 -10°C° 0 mm 6 mps 759 mmHg 62%
    06:00 -9°C° 0 mm 6 mps 760 mmHg 64%
    07:00 -9°C° 0 mm 7 mps 760 mmHg 66%
    08:00 -9°C° 0 mm 7 mps 761 mmHg 68%
    09:00 -9°C° 0.1 mm 7 mps 762 mmHg 67%
    10:00 -8°C° 0.1 mm 7 mps 762 mmHg 67%
    11:00 -8°C° 0.1 mm 7 mps 762 mmHg 66%
    12:00 -8°C° 0 mm 7 mps 762 mmHg 65%
    13:00 -7°C° 0 mm 7 mps 763 mmHg 63%
    14:00 -7°C° 0 mm 7 mps 763 mmHg 61%
    15:00 -7°C° 0 mm 7 mps 763 mmHg 62%
    16:00 -7°C° 0 mm 7 mps 763 mmHg 64%
    17:00 -6°C° 0 mm 6 mps 763 mmHg 65%
    18:00 -8°C° 0 mm 6 mps 763 mmHg 67%
    19:00 -8°C° 0 mm 6 mps 764 mmHg 69%
    20:00 -8°C° 0 mm 6 mps 764 mmHg 72%
    21:00 -7°C° 0 mm 5 mps 764 mmHg 71%
    22:00 -7°C° 0 mm 5 mps 764 mmHg 70%
    23:00 -8°C° 0 mm 4 mps 764 mmHg 69%

    Tomorrow, 24 February, Sunday

    Time Temperature Precipitation Wind Pressure Humidity
    00:00 -8°C° 0 mm 4 mps 764 mmHg 71%
    01:00 -8°C° 0 mm 4 mps 764 mmHg 72%
    02:00 -8°C° 0 mm 4 mps 764 mmHg 73%
    03:00 -8°C° 0 mm 4 mps 764 mmHg 72%
    04:00 -9°C° 0 mm 4 mps 764 mmHg 71%
    05:00 -9°C° 0 mm 4 mps 764 mmHg 71%
    06:00 -8°C° 0 mm 4 mps 764 mmHg 69%
    07:00 -8°C° 0 mm 4 mps 764 mmHg 67%
    08:00 -8°C° 0 mm 4 mps 764 mmHg 65%
    09:00 -7°C° 0 mm 4 mps 764 mmHg 61%
    10:00 -4°C° 0 mm 4 mps 764 mmHg 56%
    11:00 -4°C° 0 mm 5 mps 764 mmHg 52%
    12:00 -3°C° 0 mm 4 mps 764 mmHg 50%
    13:00 -2°C° 0 mm 4 mps 763 mmHg 48%
    14:00 -1°C° 0 mm 4 mps 763 mmHg 45%
    15:00 -2°C° 0 mm 4 mps 763 mmHg 47%
    16:00 -1°C° 0 mm 3 mps 763 mmHg 50%
    17:00 -1°C° 0 mm 3 mps 762 mmHg 52%
    18:00 -2°C° 0 mm 3 mps 762 mmHg 56%
    19:00 -3°C° 0 mm 2 mps 763 mmHg 60%
    20:00 -3°C° 0 mm 2 mps 763 mmHg 65%
    21:00 -3°C° 0 mm 2 mps 763 mmHg 66%
    22:00 -3°C° 0 mm 2 mps 763 mmHg 67%
    23:00 -3°C° 0 mm 2 mps 763 mmHg 69%

    Day after tomorrow, 25 February, Monday

    Time Temperature Precipitation Wind Pressure Humidity
    00:00 -3°C° 0 mm 2 mps 763 mmHg 69%
    01:00 -4°C° 0 mm 2 mps 763 mmHg 69%
    02:00 -4°C° 0 mm 2 mps 763 mmHg 69%
    03:00 -4°C° 0 mm 2 mps 762 mmHg 69%
    04:00 -4°C° 0 mm 2 mps 762 mmHg 69%
    05:00 -4°C° 0 mm 2 mps 762 mmHg 70%
    06:00 -4°C° 0 mm 2 mps 762 mmHg 68%
    07:00 -3°C° 0 mm 2 mps 761 mmHg 67%
    08:00 -3°C° 0 mm 2 mps 761 mmHg 65%
    09:00 -2°C° 0 mm 3 mps 761 mmHg 59%
    10:00 0°C° 0 mm 3 mps 761 mmHg 54%
    11:00 0°C° 0 mm 4 mps 761 mmHg 48%
    12:00 +1°C° 0 mm 4 mps 760 mmHg 48%
    13:00 +3°C° 0 mm 4 mps 759 mmHg 47%
    14:00 +3°C° 0 mm 5 mps 759 mmHg 46%
    15:00 +3°C° 0 mm 4 mps 758 mmHg 52%
    16:00 +3°C° 0 mm 4 mps 758 mmHg 57%
    17:00 +1°C° 0 mm 4 mps 757 mmHg 62%
    18:00 +1°C° 0 mm 4 mps 757 mmHg 68%
    19:00 0°C° 0 mm 4 mps 757 mmHg 74%
    20:00 -1°C° 0 mm 4 mps 757 mmHg 80%
    21:00 -1°C° 0 mm 5 mps 757 mmHg 81%
    22:00 -2°C° 0 mm 6 mps 757 mmHg 83%
    23:00 -2°C° 0 mm 7 mps 757 mmHg 84%

    26 February, Tuesday

    Time Temperature Precipitation Wind Pressure Humidity
    00:00 -2°C° 0 mm 6 mps 756 mmHg 86%
    01:00 -2°C° 0 mm 6 mps 756 mmHg 88%
    02:00 -2°C° 0 mm 6 mps 756 mmHg 90%
    03:00 -3°C° 0 mm 6 mps 756 mmHg 90%
    04:00 -3°C° 0 mm 6 mps 755 mmHg 90%
    05:00 -3°C° 0 mm 6 mps 755 mmHg 90%
    06:00 -3°C° 0 mm 6 mps 755 mmHg 89%
    07:00 -3°C° 0 mm 6 mps 755 mmHg 88%
    08:00 -3°C° 0 mm 6 mps 755 mmHg 87%
    09:00 -1°C° 0 mm 6 mps 754 mmHg 83%
    10:00 +1°C° 0 mm 6 mps 754 mmHg 79%
    11:00 +3°C° 0 mm 7 mps 754 mmHg 74%
    12:00 +2°C° 0 mm 7 mps 753 mmHg 76%
    13:00 +2°C° 0 mm 7 mps 752 mmHg 78%
    14:00 +2°C° 0 mm 7 mps 751 mmHg 79%
    15:00 +2°C° 0 mm 7 mps 751 mmHg 79%
    16:00 +2°C° 0 mm 7 mps 750 mmHg 79%
    17:00 +2°C° 0 mm 6 mps 749 mmHg 79%
    18:00 +2°C° 0.1 mm 7 mps 749 mmHg 80%
    19:00 +2°C° 0.1 mm 7 mps 749 mmHg 80%
    20:00 +1°C° 0.1 mm 8 mps 749 mmHg 81%
    21:00 0°C° 0 mm 9 mps 748 mmHg 81%
    22:00 0°C° 0 mm 9 mps 748 mmHg 81%
    23:00 0°C° 0 mm 10 mps 748 mmHg 82%

    27 February, Wednesday

    Time Temperature Precipitation Wind Pressure Humidity
    00:00 0°C° 0.1 mm 10 mps 748 mmHg 81%
    01:00 0°C° 0.1 mm 9 mps 748 mmHg 80%
    02:00 0°C° 0.1 mm 9 mps 748 mmHg 79%
    03:00 0°C° 0 mm 9 mps 748 mmHg 78%
    04:00 0°C° 0 mm 9 mps 748 mmHg 77%
    05:00 -1°C° 0 mm 9 mps 749 mmHg 76%
    06:00 -1°C° 0 mm 9 mps 749 mmHg 76%
    07:00 -1°C° 0 mm 9 mps 750 mmHg 76%
    08:00 -1°C° 0 mm 9 mps 750 mmHg 77%
    09:00 -1°C° 0 mm 9 mps 751 mmHg 74%
    10:00 0°C° 0 mm 9 mps 751 mmHg 72%
    11:00 +1°C° 0 mm 9 mps 752 mmHg 70%
    12:00 +1°C° 0 mm 8 mps 752 mmHg 68%
    13:00 +1°C° 0 mm 8 mps 752 mmHg 65%
    14:00 +1°C° 0 mm 8 mps 752 mmHg 63%
    15:00 +2°C° 0 mm 7 mps 752 mmHg 64%
    16:00 +2°C° 0 mm 6 mps 752 mmHg 64%
    17:00 +2°C° 0 mm 6 mps 752 mmHg 65%
    18:00 +1°C° 0 mm 5 mps 752 mmHg 68%
    19:00 +1°C° 0 mm 4 mps 752 mmHg 71%
    20:00 +2°C° 0 mm 3 mps 752 mmHg 74%
    21:00 +1°C° 0 mm 3 mps 752 mmHg 78%
    22:00 +1°C° 0 mm 2 mps 751 mmHg 82%
    23:00 +1°C° 0 mm 2 mps 751 mmHg 85%

    28 February, Thursday

    Time Temperature Precipitation Wind Pressure Humidity
    00:00 +1°C° 0 mm 2 mps 750 mmHg 86%
    01:00 -1°C° 0 mm 2 mps 749 mmHg 87%
    02:00 -1°C° 0 mm 2 mps 749 mmHg 87%
    03:00 -1°C° 0 mm 2 mps 748 mmHg 85%
    04:00 -1°C° 0 mm 3 mps 747 mmHg 84%
    05:00 0°C° 0 mm 3 mps 746 mmHg 82%
    06:00 -1°C° 0 mm 4 mps 746 mmHg 78%
    07:00 0°C° 0 mm 4 mps 745 mmHg 74%
    08:00 0°C° 0 mm 4 mps 744 mmHg 69%
    09:00 +2°C° 0 mm 5 mps 744 mmHg 63%
    10:00 +4°C° 0 mm 6 mps 743 mmHg 56%
    11:00 +7°C° 0 mm 6 mps 743 mmHg 50%
    12:00 +9°C° 0 mm 7 mps 742 mmHg 48%
    13:00 +10°C° 0 mm 7 mps 741 mmHg 45%
    14:00 +11°C° 0 mm 8 mps 741 mmHg 43%
    15:00 +10°C° 0 mm 7 mps 740 mmHg 46%
    16:00 +10°C° 0 mm 6 mps 740 mmHg 49%
    17:00 +11°C° 0 mm 4 mps 740 mmHg 52%
    18:00 +8°C° 0 mm 4 mps 740 mmHg 57%
    19:00 +7°C° 0 mm 4 mps 740 mmHg 62%
    20:00 +6°C° 0 mm 4 mps 740 mmHg 66%
    21:00 +6°C° 0 mm 5 mps 740 mmHg 68%
    22:00 +5°C° 0 mm 5 mps 740 mmHg 69%
    23:00 +4°C° 0 mm 6 mps 740 mmHg 70%
    Show more